Location: Hamburg
(53.5554°N, 9.9941°E)
Time: 03:54:03
(UTC+02:00)

ISS - Pass Details

Date: 16 May 2021
Orbit: 417 x 422 km, 51.6° (Epoch: 15 June)

Event Time Altitude Azimuth Distance (km) Brightness Sun altitude
Rises 22:50:33 0° 232° (SW) 2,359 0.0 -10.7°
Reaches altitude 10° 22:52:45 10° 222° (SW) 1,499 -1.1 -10.8°
Maximum altitude 22:55:49 33° 157° (SSE) 724 -3.1 -11.1°
Drops below altitude 10° 22:58:55 10° 91° (E) 1,507 -1.3 -11.3°
Sets 23:01:08 0° 82° (E) 2,375 -0.2 -11.5°
